| time (UTC) | temp F | wind direction | speed knots | gust knots | rain 1hr in | rain 24hr in | rain mn in | humidity % | barometer mb |
| 20260507180114 | 59 | 317 | 1.7 | 5.2 | 0.00 | 0.00 | 0.00 | 45 | 986.7 |
| 20260507175613 | 58 | 2 | 2.6 | 6.1 | 0.00 | 0.00 | 0.00 | 45 | 986.7 |
| 20260507174613 | 59 | 2 | 2.6 | 7.8 | 0.00 | 0.00 | 0.00 | 41 | 986.9 |
| 20260507174113 | 58 | 23 | 2.6 | 5.2 | 0.00 | 0.00 | 0.00 | 43 | 987.0 |
| 20260507173113 | 58 | 343 | 1.7 | 7.0 | 0.00 | 0.00 | 0.00 | 46 | 986.9 |
| 20260507172613 | 58 | 7 | 2.6 | 6.1 | 0.00 | 0.00 | 0.00 | 43 | 987.1 |
| 20260507171613 | 58 | 344 | 2.6 | 5.2 | 0.00 | 0.00 | 0.00 | 41 | 987.3 |
| 20260507171114 | 58 | 294 | 2.6 | 6.1 | 0.00 | 0.00 | 0.00 | 44 | 987.3 |
| 20260507170613 | 57 | 241 | 1.7 | 4.3 | 0.00 | 0.00 | 0.00 | 47 | 987.3 |
| 20260507170113 | 57 | 352 | 2.6 | 5.2 | 0.00 | 0.00 | 0.00 | 43 | 987.5 |
| 20260507165613 | 57 | 5 | 2.6 | 5.2 | 0.00 | 0.00 | 0.00 | 45 | 987.4 |
| 20260507165113 | 57 | 17 | 1.7 | 5.2 | 0.00 | 0.00 | 0.00 | 46 | 987.5 |
| 20260507164613 | 57 | 4 | 1.7 | 5.2 | 0.00 | 0.00 | 0.00 | 49 | 987.4 |
| 20260507164113 | 57 | 7 | 2.6 | 5.2 | 0.00 | 0.00 | 0.00 | 45 | 987.5 |
| 20260507163614 | 57 | 18 | 0.9 | 4.3 | 0.00 | 0.00 | 0.00 | 46 | 987.5 |
| 20260507163113 | 57 | 339 | 1.7 | 5.2 | 0.00 | 0.00 | 0.00 | 44 | 987.6 |
| 20260507162613 | 57 | 352 | 1.7 | 4.3 | 0.00 | 0.00 | 0.00 | 44 | 987.5 |
| 20260507162113 | 57 | 215 | 0.9 | 5.2 | 0.00 | 0.00 | 0.00 | 49 | 987.5 |
| 20260507161613 | 57 | 269 | 1.7 | 5.2 | 0.00 | 0.00 | 0.00 | 46 | 987.4 |
| 20260507161113 | 57 | 15 | 1.7 | 4.3 | 0.00 | 0.00 | 0.00 | 45 | 987.5 |
| 20260507160613 | 57 | 245 | 1.7 | 6.1 | 0.00 | 0.00 | 0.00 | 46 | 987.5 |
| 20260507160113 | 57 | 333 | 1.7 | 2.6 | 0.00 | 0.00 | 0.00 | 46 | 987.6 |
| 20260507155613 | 57 | 5 | 2.6 | 5.2 | 0.00 | 0.00 | 0.00 | 47 | 987.7 |
| 20260507155114 | 57 | 301 | 2.6 | 5.2 | 0.00 | 0.00 | 0.00 | 45 | 987.6 |
| 20260507154613 | 57 | 191 | 1.7 | 5.2 | 0.00 | 0.00 | 0.00 | 50 | 987.4 |
| 20260507153613 | 56 | 338 | 2.6 | 7.0 | 0.00 | 0.00 | 0.00 | 49 | 987.6 |
| 20260507153113 | 56 | 25 | 1.7 | 4.3 | 0.00 | 0.00 | 0.00 | 48 | 987.5 |
| 20260507152613 | 55 | 289 | 1.7 | 6.1 | 0.00 | 0.00 | 0.00 | 49 | 987.5 |
| 20260507152113 | 56 | 276 | 2.6 | 7.0 | 0.00 | 0.00 | 0.00 | 49 | 987.5 |
| 20260507151613 | 56 | 238 | 0.9 | 7.0 | 0.00 | 0.00 | 0.00 | 52 | 987.6 |
| 20260507151113 | 55 | 247 | 1.7 | 5.2 | 0.00 | 0.00 | 0.00 | 49 | 987.4 |
| 20260507150613 | 55 | 50 | 1.7 | 4.3 | 0.00 | 0.00 | 0.00 | 48 | 987.5 |
| 20260507150113 | 55 | 271 | 1.7 | 5.2 | 0.00 | 0.00 | 0.00 | 49 | 987.4 |
| 20260507145613 | 54 | 335 | 0.9 | 4.3 | 0.00 | 0.00 | 0.00 | 52 | 987.3 |
| 20260507145113 | 54 | 344 | 0.9 | 4.3 | 0.00 | 0.00 | 0.00 | 52 | 987.2 |
| 20260507144613 | 54 | 46 | 0.9 | 2.6 | 0.00 | 0.00 | 0.00 | 52 | 987.1 |
| 20260507143613 | 53 | 8 | 1.7 | 6.1 | 0.00 | 0.00 | 0.00 | 50 | 987.2 |
| 20260507143113 | 52 | 242 | 1.7 | 5.2 | 0.00 | 0.00 | 0.00 | 51 | 987.0 |
| 20260507142113 | 52 | 224 | 1.7 | 5.2 | 0.00 | 0.00 | 0.00 | 49 | 987.7 |
| 20260507141613 | 51 | 318 | 1.7 | 7.0 | 0.00 | 0.00 | 0.00 | 50 | 987.7 |
| 20260507141113 | 51 | 319 | 1.7 | 5.2 | 0.00 | 0.00 | 0.00 | 54 | 987.8 |
| 20260507140112 | 51 | 27 | 0.9 | 2.6 | 0.00 | 0.00 | 0.00 | 54 | 987.9 |
| 20260507135613 | 51 | 358 | 0.9 | 1.7 | 0.00 | 0.00 | 0.00 | 52 | 987.9 |
| 20260507135113 | 50 | 5 | 1.7 | 4.3 | 0.00 | 0.00 | 0.00 | 53 | 987.9 |
| 20260507134613 | 50 | 34 | 2.6 | 4.3 | 0.00 | 0.00 | 0.00 | 50 | 987.9 |
| 20260507134113 | 50 | 311 | 0.9 | 4.3 | 0.00 | 0.00 | 0.00 | 52 | 987.9 |
| 20260507133113 | 50 | 259 | 1.7 | 5.2 | 0.00 | 0.00 | 0.00 | 55 | 987.9 |
| 20260507132113 | 49 | 51 | 1.7 | 2.6 | 0.00 | 0.00 | 0.00 | 56 | 987.9 |
| 20260507131613 | 48 | 214 | 0.9 | 4.3 | 0.00 | 0.00 | 0.00 | 61 | 987.9 |
| 20260507130612 | 47 | 2 | 0.0 | 1.7 | 0.00 | 0.00 | 0.00 | 68 | 987.9 |
| 20260507130113 | 47 | 255 | 0.0 | 0.9 | 0.00 | 0.00 | 0.00 | 76 | 987.9 |
| 20260507125613 | 46 | 262 | 0.0 | 0.9 | 0.00 | 0.00 | 0.00 | 78 | 987.9 |
| 20260507125113 | 46 | 256 | 0.0 | 1.7 | 0.00 | 0.00 | 0.00 | 78 | 987.9 |
| 20260507124613 | 45 | 215 | 0.0 | 1.7 | 0.00 | 0.00 | 0.00 | 78 | 987.9 |
| 20260507124113 | 45 | 247 | 0.9 | 1.7 | 0.00 | 0.00 | 0.00 | 78 | 987.8 |
| 20260507123113 | 43 | 210 | 0.9 | 1.7 | 0.00 | 0.00 | 0.00 | 82 | 988.0 |
| 20260507122612 | 42 | 289 | 1.7 | 2.6 | 0.00 | 0.00 | 0.00 | 88 | 988.1 |
| 20260507122112 | 41 | 222 | 0.0 | 1.7 | 0.00 | 0.00 | 0.00 | 95 | 988.0 |
| 20260507121613 | 40 | 227 | 0.0 | 1.7 | 0.00 | 0.00 | 0.00 | 96 | 988.0 |
| 20260507121112 | 39 | 222 | 0.0 | 1.7 | 0.00 | 0.00 | 0.00 | 97 | 988.0 |
| 20260507120612 | 39 | 239 | 0.0 | 0.0 | 0.00 | 0.00 | 0.00 | 97 | 988.0 |
| 20260507120113 | 38 | 219 | 0.0 | 0.9 | 0.00 | 0.00 | 0.00 | 97 | 988.0 |
| 20260507115613 | 38 | 214 | 0.0 | 0.9 | 0.00 | 0.00 | 0.00 | 97 | 988.1 |
| 20260507115113 | 38 | 238 | 0.0 | 1.7 | 0.00 | 0.00 | 0.00 | 97 | 988.1 |
| 20260507114613 | 38 | 262 | 0.0 | 0.9 | 0.00 | 0.00 | 0.00 | 97 | 988.1 |
| 20260507114113 | 37 | 268 | 0.0 | 0.0 | 0.00 | 0.00 | 0.00 | 96 | 988.1 |
| 20260507113613 | 37 | 269 | 0.0 | 0.9 | 0.00 | 0.00 | 0.00 | 96 | 988.1 |
| 20260507113113 | 37 | 253 | 0.0 | 0.0 | 0.00 | 0.00 | 0.00 | 96 | 988.0 |
| 20260507112612 | 36 | 291 | 0.0 | 0.0 | 0.00 | 0.00 | 0.00 | 96 | 988.1 |
| 20260507112112 | 36 | 269 | 0.0 | 0.0 | 0.00 | 0.00 | 0.00 | 96 | 988.2 |
| 20260507111112 | 36 | 269 | 0.0 | 0.0 | 0.00 | 0.00 | 0.00 | 96 | 988.1 |
| 20260507110113 | 36 | 267 | 0.0 | 0.0 | 0.00 | 0.00 | 0.00 | 95 | 988.0 |
| 20260507105613 | 36 | 266 | 0.0 | 0.0 | 0.00 | 0.00 | 0.00 | 95 | 988.0 |
| 20260507105113 | 36 | 262 | 0.0 | 0.0 | 0.00 | 0.00 | 0.00 | 95 | 987.9 |
| 20260507104612 | 36 | 262 | 0.0 | 0.0 | 0.00 | 0.00 | 0.00 | 94 | 987.9 |
| 20260507104113 | 37 | 239 | 0.0 | 0.0 | 0.00 | 0.00 | 0.00 | 94 | 987.8 |
| 20260507103612 | 37 | 257 | 0.0 | 0.0 | 0.00 | 0.00 | 0.00 | 94 | 987.7 |
| 20260507103112 | 37 | 257 | 0.0 | 0.9 | 0.00 | 0.00 | 0.00 | 94 | 987.7 |
| 20260507102612 | 37 | 274 | 0.0 | 0.0 | 0.00 | 0.00 | 0.00 | 93 | 987.7 |
| 20260507102113 | 38 | 276 | 0.0 | 0.9 | 0.00 | 0.00 | 0.00 | 93 | 987.6 |
| 20260507101613 | 38 | 286 | 0.0 | 0.9 | 0.00 | 0.00 | 0.00 | 93 | 987.7 |
| 20260507101112 | 38 | 198 | 0.0 | 0.0 | 0.00 | 0.00 | 0.00 | 93 | 987.7 |
| 20260507100613 | 38 | 214 | 0.0 | 0.0 | 0.00 | 0.00 | 0.00 | 92 | 987.8 |
| 20260507100113 | 39 | 329 | 0.0 | 0.0 | 0.00 | 0.00 | 0.00 | 92 | 987.7 |
| 20260507095612 | 39 | 329 | 0.0 | 0.0 | 0.00 | 0.00 | 0.00 | 92 | 987.6 |
| 20260507095112 | 39 | 336 | 0.0 | 1.7 | 0.00 | 0.00 | 0.00 | 92 | 987.5 |
| 20260507094612 | 39 | 195 | 0.0 | 0.0 | 0.00 | 0.00 | 0.00 | 92 | 987.7 |
| 20260507094112 | 39 | 157 | 0.0 | 1.7 | 0.00 | 0.00 | 0.00 | 92 | 987.6 |
| 20260507093612 | 39 | 271 | 0.0 | 0.0 | 0.00 | 0.00 | 0.00 | 93 | 987.6 |
| 20260507093112 | 39 | 271 | 0.0 | 0.0 | 0.00 | 0.00 | 0.00 | 94 | 987.6 |
| 20260507092613 | 39 | 271 | 0.0 | 0.0 | 0.00 | 0.00 | 0.00 | 94 | 987.6 |
| 20260507092113 | 39 | 271 | 0.0 | 0.0 | 0.00 | 0.00 | 0.00 | 94 | 987.6 |
| 20260507091613 | 39 | 271 | 0.0 | 0.0 | 0.00 | 0.00 | 0.00 | 95 | 987.6 |
| 20260507091113 | 39 | 271 | 0.0 | 0.0 | 0.00 | 0.00 | 0.00 | 95 | 987.5 |
| 20260507090613 | 39 | 297 | 0.0 | 0.9 | 0.00 | 0.00 | 0.00 | 95 | 987.5 |
| 20260507090113 | 39 | 272 | 0.0 | 0.0 | 0.00 | 0.00 | 0.00 | 95 | 987.5 |
| 20260507085112 | 40 | 265 | 0.0 | 0.0 | 0.00 | 0.00 | 0.00 | 95 | 987.4 |
| 20260507083612 | 40 | 217 | 0.0 | 0.0 | 0.00 | 0.00 | 0.00 | 96 | 987.2 |
| 20260507082113 | 39 | 30 | 0.0 | 0.9 | 0.00 | 0.00 | 0.00 | 98 | 987.1 |
| 20260507081613 | 39 | 244 | 0.0 | 0.9 | 0.00 | 0.00 | 0.00 | 98 | 987.1 |
| 20260507081112 | 39 | 359 | 0.0 | 0.0 | 0.00 | 0.00 | 0.00 | 98 | 987.1 |
| 20260507075612 | 39 | 359 | 0.0 | 1.7 | 0.00 | 0.00 | 0.00 | 98 | 987.1 |
| 20260507075113 | 39 | 204 | 0.0 | 0.0 | 0.00 | 0.00 | 0.00 | 98 | 987.2 |
| 20260507074613 | 39 | 204 | 0.0 | 0.9 | 0.00 | 0.00 | 0.00 | 98 | 987.1 |
| 20260507073113 | 39 | 264 | 0.0 | 0.0 | 0.00 | 0.00 | 0.00 | 98 | 987.1 |
| 20260507072613 | 40 | 264 | 0.0 | 0.0 | 0.00 | 0.00 | 0.00 | 98 | 987.1 |
| 20260507072113 | 40 | 264 | 0.0 | 0.0 | 0.00 | 0.00 | 0.00 | 98 | 987.1 |
| 20260507071612 | 40 | 264 | 0.0 | 0.0 | 0.00 | 0.00 | 0.00 | 98 | 987.1 |
| 20260507071112 | 39 | 264 | 0.0 | 0.0 | 0.00 | 0.00 | 0.00 | 98 | 987.0 |
| 20260507070612 | 39 | 264 | 0.0 | 0.0 | 0.00 | 0.00 | 0.00 | 97 | 987.1 |
| 20260507070112 | 39 | 264 | 0.0 | 0.0 | 0.00 | 0.00 | 0.00 | 97 | 987.2 |
| 20260507065612 | 40 | 264 | 0.0 | 0.0 | 0.00 | 0.00 | 0.00 | 97 | 987.2 |
| 20260507064612 | 40 | 243 | 0.0 | 0.9 | 0.00 | 0.00 | 0.00 | 97 | 987.2 |
| 20260507064112 | 40 | 258 | 0.0 | 0.9 | 0.00 | 0.00 | 0.00 | 97 | 987.3 |
| 20260507063612 | 40 | 271 | 0.0 | 0.0 | 0.00 | 0.00 | 0.00 | 97 | 987.3 |
| 20260507063112 | 40 | 271 | 0.0 | 0.0 | 0.00 | 0.00 | 0.00 | 97 | 987.3 |
| 20260507062112 | 41 | 270 | 0.0 | 0.0 | 0.00 | 0.00 | 0.00 | 97 | 987.4 |
| 20260507061612 | 41 | 273 | 0.0 | 0.0 | 0.00 | 0.00 | 0.00 | 97 | 987.3 |
| 20260507060612 | 41 | 265 | 0.0 | 0.9 | 0.00 | 0.00 | 0.00 | 97 | 987.3 |
| 20260507060112 | 41 | 270 | 0.0 | 0.0 | 0.00 | 0.00 | 0.00 | 97 | 987.3 |
| 20260507055612 | 41 | 270 | 0.0 | 0.0 | 0.00 | 0.00 | 0.00 | 97 | 987.4 |
| 20260507055112 | 41 | 270 | 0.0 | 0.0 | 0.00 | 0.00 | 0.00 | 97 | 987.4 |
| 20260507054612 | 41 | 273 | 0.0 | 0.0 | 0.00 | 0.00 | 0.00 | 97 | 987.4 |
| 20260507054112 | 41 | 250 | 0.0 | 0.0 | 0.00 | 0.00 | 0.00 | 97 | 987.4 |
| 20260507053612 | 41 | 216 | 0.0 | 0.0 | 0.00 | 0.00 | 0.00 | 97 | 987.4 |
| 20260507053112 | 41 | 274 | 0.0 | 0.0 | 0.00 | 0.00 | 0.00 | 97 | 987.4 |
| 20260507052112 | 42 | 270 | 0.0 | 0.0 | 0.00 | 0.00 | 0.00 | 96 | 987.4 |
| 20260507051112 | 42 | 306 | 0.0 | 0.0 | 0.00 | 0.00 | 0.00 | 96 | 987.3 |
| 20260507050612 | 42 | 306 | 0.0 | 0.0 | 0.00 | 0.00 | 0.00 | 96 | 987.3 |
| 20260507050112 | 42 | 306 | 0.0 | 0.0 | 0.00 | 0.00 | 0.00 | 96 | 987.4 |
| 20260507045612 | 42 | 306 | 0.0 | 0.0 | 0.00 | 0.00 | 0.00 | 96 | 987.4 |
| 20260507045112 | 42 | 306 | 0.0 | 0.0 | 0.00 | 0.00 | 0.00 | 96 | 987.5 |
| 20260507044612 | 42 | 306 | 0.0 | 0.0 | 0.00 | 0.00 | 0.00 | 96 | 987.6 |
| 20260507044112 | 42 | 306 | 0.0 | 0.9 | 0.00 | 0.00 | 0.00 | 96 | 987.5 |
| 20260507043612 | 43 | 256 | 0.0 | 0.9 | 0.00 | 0.00 | 0.00 | 96 | 987.5 |
| 20260507043112 | 43 | 273 | 0.0 | 0.0 | 0.00 | 0.00 | 0.00 | 96 | 987.5 |
| 20260507042612 | 43 | 276 | 0.0 | 0.0 | 0.00 | 0.00 | 0.00 | 96 | 987.4 |
| 20260507042112 | 43 | 282 | 0.0 | 0.0 | 0.00 | 0.00 | 0.00 | 96 | 987.4 |
| 20260507041613 | 43 | 280 | 0.0 | 0.9 | 0.00 | 0.00 | 0.00 | 95 | 987.4 |
| 20260507041112 | 43 | 296 | 0.0 | 0.0 | 0.00 | 0.00 | 0.00 | 95 | 987.4 |
| 20260507040612 | 44 | 296 | 0.0 | 0.0 | 0.00 | 0.00 | 0.00 | 95 | 987.4 |
| 20260507040112 | 44 | 223 | 0.0 | 0.0 | 0.00 | 0.00 | 0.00 | 95 | 987.4 |
| 20260507035112 | 44 | 268 | 0.0 | 0.0 | 0.00 | 0.00 | 0.00 | 94 | 987.4 |
| 20260507034613 | 44 | 268 | 0.0 | 0.0 | 0.00 | 0.00 | 0.00 | 94 | 987.4 |
| 20260507034112 | 44 | 268 | 0.0 | 0.0 | 0.00 | 0.00 | 0.00 | 94 | 987.4 |
| 20260507033612 | 44 | 264 | 0.0 | 0.0 | 0.00 | 0.00 | 0.00 | 94 | 987.4 |
| 20260507033112 | 44 | 264 | 0.0 | 0.0 | 0.00 | 0.00 | 0.00 | 94 | 987.4 |
| 20260507032112 | 45 | 264 | 0.0 | 0.0 | 0.00 | 0.00 | 0.00 | 94 | 987.3 |
| 20260507031612 | 45 | 257 | 0.0 | 0.0 | 0.00 | 0.00 | 0.00 | 93 | 987.3 |
| 20260507031112 | 45 | 257 | 0.0 | 0.0 | 0.00 | 0.00 | 0.00 | 92 | 987.3 |
| 20260507030612 | 45 | 253 | 0.0 | 0.9 | 0.00 | 0.00 | 0.00 | 92 | 987.4 |
| 20260507030112 | 46 | 315 | 0.0 | 0.0 | 0.00 | 0.00 | 0.00 | 92 | 987.4 |
| 20260507025112 | 46 | 315 | 0.0 | 0.0 | 0.00 | 0.00 | 0.00 | 91 | 987.4 |
| 20260507024111 | 47 | 271 | 0.0 | 0.0 | 0.00 | 0.00 | 0.00 | 90 | 987.3 |
| 20260507023611 | 47 | 283 | 0.0 | 0.9 | 0.00 | 0.00 | 0.00 | 90 | 987.3 |
| 20260507022611 | 47 | 277 | 0.0 | 0.0 | 0.00 | 0.00 | 0.00 | 89 | 987.3 |
| 20260507021611 | 47 | 231 | 0.0 | 0.0 | 0.00 | 0.00 | 0.00 | 85 | 987.3 |
| 20260507021112 | 47 | 286 | 0.0 | 0.0 | 0.00 | 0.00 | 0.00 | 82 | 987.3 |
| 20260507020612 | 47 | 286 | 0.0 | 0.0 | 0.00 | 0.00 | 0.00 | 83 | 987.1 |
| 20260507020112 | 48 | 286 | 0.0 | 0.0 | 0.00 | 0.00 | 0.00 | 84 | 987.1 |
| 20260507015112 | 48 | 286 | 0.0 | 0.0 | 0.00 | 0.00 | 0.00 | 84 | 987.0 |
| 20260507014111 | 49 | 292 | 0.0 | 0.0 | 0.00 | 0.00 | 0.00 | 84 | 987.0 |
| 20260507013611 | 49 | 281 | 0.0 | 0.9 | 0.00 | 0.00 | 0.00 | 83 | 986.8 |
| 20260507013112 | 50 | 271 | 0.0 | 0.9 | 0.00 | 0.00 | 0.00 | 80 | 986.8 |
| 20260507012612 | 50 | 272 | 0.0 | 0.0 | 0.00 | 0.00 | 0.00 | 77 | 986.8 |
| 20260507012111 | 50 | 274 | 0.0 | 0.0 | 0.00 | 0.00 | 0.00 | 76 | 986.8 |
| 20260507011611 | 51 | 274 | 0.0 | 0.0 | 0.00 | 0.00 | 0.00 | 74 | 986.7 |
| 20260507011112 | 51 | 255 | 0.0 | 0.9 | 0.00 | 0.00 | 0.00 | 73 | 986.6 |
| 20260507010612 | 51 | 217 | 0.0 | 0.9 | 0.00 | 0.00 | 0.00 | 72 | 986.6 |
| 20260507010112 | 52 | 314 | 0.0 | 0.9 | 0.00 | 0.00 | 0.00 | 72 | 986.7 |
| 20260507004612 | 53 | 264 | 0.0 | 0.0 | 0.00 | 0.00 | 0.00 | 71 | 986.6 |
| 20260507004112 | 53 | 258 | 0.0 | 0.0 | 0.00 | 0.00 | 0.00 | 70 | 986.5 |
| 20260507003612 | 54 | 258 | 0.0 | 0.9 | 0.00 | 0.00 | 0.00 | 69 | 986.5 |
| 20260507003112 | 54 | 223 | 0.0 | 0.9 | 0.00 | 0.00 | 0.00 | 68 | 986.6 |
| 20260507002112 | 55 | 187 | 0.0 | 2.6 | 0.00 | 0.00 | 0.00 | 66 | 986.4 |
| 20260507001612 | 55 | 199 | 0.0 | 0.0 | 0.00 | 0.00 | 0.00 | 64 | 986.3 |
| 20260507001111 | 56 | 206 | 0.0 | 0.9 | 0.00 | 0.00 | 0.00 | 65 | 986.1 |
| 20260507000111 | 56 | 232 | 0.0 | 2.6 | 0.00 | 0.00 | 0.00 | 63 | 986.0 |
| 20260506235611 | 56 | 270 | 0.0 | 4.3 | 0.00 | 0.00 | 0.00 | 64 | 985.9 |
| 20260506235111 | 56 | 196 | 0.9 | 2.6 | 0.00 | 0.00 | 0.00 | 64 | 985.9 |
| 20260506234112 | 57 | 229 | 0.0 | 4.3 | 0.00 | 0.00 | 0.00 | 67 | 985.9 |
| 20260506233612 | 57 | 278 | 0.9 | 2.6 | 0.00 | 0.00 | 0.00 | 61 | 985.9 |
| 20260506233112 | 57 | 249 | 0.9 | 1.7 | 0.00 | 0.00 | 0.00 | 61 | 985.9 |
| 20260506232112 | 57 | 253 | 0.0 | 0.9 | 0.00 | 0.00 | 0.00 | 60 | 985.9 |
| 20260506231612 | 57 | 289 | 0.0 | 1.7 | 0.00 | 0.00 | 0.00 | 61 | 985.8 |
| 20260506230611 | 58 | 346 | 0.0 | 1.7 | 0.00 | 0.00 | 0.00 | 59 | 985.6 |
| 20260506225611 | 59 | 51 | 1.7 | 4.3 | 0.00 | 0.00 | 0.00 | 57 | 985.7 |
| 20260506225111 | 59 | 135 | 0.9 | 2.6 | 0.00 | 0.00 | 0.00 | 55 | 985.7 |
| 20260506224611 | 60 | 306 | 0.9 | 2.6 | 0.00 | 0.00 | 0.00 | 55 | 985.7 |
| 20260506223611 | 60 | 19 | 1.7 | 2.6 | 0.00 | 0.00 | 0.00 | 54 | 985.6 |
| 20260506223112 | 59 | 237 | 0.9 | 4.3 | 0.00 | 0.00 | 0.00 | 57 | 985.5 |
| 20260506222611 | 58 | 334 | 0.9 | 2.6 | 0.00 | 0.00 | 0.00 | 58 | 985.5 |
| 20260506221611 | 58 | 259 | 0.9 | 2.6 | 0.00 | 0.00 | 0.00 | 56 | 985.9 |
| 20260506221111 | 58 | 222 | 0.9 | 2.6 | 0.00 | 0.00 | 0.00 | 56 | 985.9 |
| 20260506220611 | 58 | 257 | 0.9 | 2.6 | 0.00 | 0.00 | 0.00 | 57 | 985.9 |
| 20260506215611 | 58 | 216 | 0.0 | 1.7 | 0.00 | 0.00 | 0.00 | 58 | 986.0 |
| 20260506215111 | 58 | 274 | 0.9 | 2.6 | 0.00 | 0.00 | 0.00 | 60 | 986.1 |
| 20260506214611 | 58 | 266 | 1.7 | 4.3 | 0.00 | 0.00 | 0.00 | 58 | 986.1 |
| 20260506214111 | 59 | 337 | 0.9 | 2.6 | 0.00 | 0.00 | 0.00 | 56 | 986.0 |
| 20260506213611 | 59 | 172 | 0.9 | 2.6 | 0.00 | 0.00 | 0.00 | 53 | 985.9 |
| 20260506213112 | 60 | 323 | 1.7 | 4.3 | 0.00 | 0.00 | 0.00 | 55 | 985.6 |
| 20260506212611 | 60 | 226 | 0.9 | 2.6 | 0.00 | 0.00 | 0.00 | 56 | 985.5 |
| 20260506212111 | 59 | 123 | 1.7 | 4.3 | 0.00 | 0.00 | 0.00 | 54 | 985.5 |
| 20260506211611 | 59 | 324 | 0.0 | 4.3 | 0.00 | 0.00 | 0.00 | 57 | 985.6 |
| 20260506211111 | 58 | 280 | 0.0 | 1.7 | 0.00 | 0.00 | 0.00 | 58 | 985.7 |
| 20260506210612 | 58 | 230 | 1.7 | 4.3 | 0.00 | 0.00 | 0.00 | 53 | 985.6 |
| 20260506210112 | 59 | 29 | 1.7 | 4.3 | 0.00 | 0.00 | 0.00 | 53 | 985.5 |
| 20260506205611 | 59 | 11 | 1.7 | 4.3 | 0.00 | 0.00 | 0.00 | 53 | 985.4 |
| 20260506205111 | 59 | 262 | 0.9 | 2.6 | 0.00 | 0.00 | 0.00 | 54 | 985.4 |
| 20260506204612 | 58 | 44 | 0.9 | 2.6 | 0.00 | 0.00 | 0.00 | 54 | 985.3 |
| 20260506203612 | 58 | 166 | 0.9 | 2.6 | 0.00 | 0.00 | 0.00 | 56 | 985.5 |
| 20260506203111 | 58 | 41 | 0.0 | 1.7 | 0.00 | 0.00 | 0.00 | 57 | 985.5 |
| 20260506202111 | 58 | 205 | 0.9 | 1.7 | 0.00 | 0.00 | 0.00 | 57 | 985.6 |
| 20260506200612 | 59 | 278 | 0.0 | 1.7 | 0.00 | 0.00 | 0.00 | 57 | 985.6 |
| 20260506200111 | 58 | 199 | 0.9 | 5.2 | 0.00 | 0.00 | 0.00 | 54 | 985.5 |
| 20260506195611 | 58 | 337 | 0.0 | 2.6 | 0.00 | 0.00 | 0.00 | 55 | 985.6 |
| 20260506195111 | 58 | 262 | 0.9 | 2.6 | 0.00 | 0.00 | 0.00 | 54 | 985.7 |
| 20260506194612 | 58 | 270 | 0.9 | 4.3 | 0.00 | 0.00 | 0.00 | 54 | 985.8 |
| 20260506194112 | 58 | 342 | 1.7 | 4.3 | 0.00 | 0.00 | 0.00 | 53 | 985.8 |
| 20260506193112 | 58 | 21 | 0.9 | 4.3 | 0.00 | 0.00 | 0.00 | 57 | 985.6 |
| 20260506192111 | 59 | 10 | 0.0 | 1.7 | 0.00 | 0.00 | 0.00 | 55 | 985.5 |
| 20260506191611 | 60 | 24 | 1.7 | 2.6 | 0.00 | 0.00 | 0.00 | 54 | 985.4 |
| 20260506190611 | 60 | 247 | 1.7 | 4.3 | 0.00 | 0.00 | 0.00 | 54 | 985.0 |
| 20260506190111 | 59 | 24 | 0.9 | 2.6 | 0.00 | 0.00 | 0.00 | 57 | 985.1 |
| 20260506185111 | 58 | 33 | 1.7 | 2.6 | 0.00 | 0.00 | 0.00 | 56 | 985.4 |
| 20260506184611 | 58 | 145 | 1.7 | 2.6 | 0.00 | 0.00 | 0.00 | 56 | 985.5 |
| 20260506184111 | 57 | 7 | 0.9 | 2.6 | 0.00 | 0.00 | 0.00 | 57 | 985.4 |
| 20260506183611 | 57 | 7 | 0.9 | 4.3 | 0.00 | 0.00 | 0.00 | 54 | 985.4 |
| 20260506183111 | 57 | 0 | 1.7 | 2.6 | 0.00 | 0.00 | 0.00 | 54 | 985.5 |
| 20260506182612 | 58 | 8 | 1.7 | 5.2 | 0.00 | 0.00 | 0.00 | 53 | 985.6 |
| 20260506181611 | 58 | 33 | 0.9 | 4.3 | 0.00 | 0.00 | 0.00 | 59 | 985.3 |
| 20260506181112 | 58 | 301 | 0.9 | 1.7 | 0.00 | 0.00 | 0.00 | 57 | 985.4 |
| 20260506180611 | 58 | 37 | 0.9 | 5.2 | 0.00 | 0.00 | 0.00 | 56 | 985.6 |